• En Colombia
  • Lista de países
  • Para 7 días
  • Temperatura del agua
  • El tiempo en el mapa
  • Informadores
  • user-avatar
    Iniciar sesión

    Tiempo cada hora Plzen

    Hoy, 15 Diciembre, Domingo

    Tiempo Temperatura Precipitaciones Viento Presión Humedad
    00:00 +3°C° 0 mm 6 mps 724 mmHg 82%
    01:00 +4°C° 0 mm 4 mps 725 mmHg 84%
    02:00 +4°C° 0 mm 3 mps 725 mmHg 86%
    03:00 +3°C° 0 mm 3 mps 725 mmHg 89%
    04:00 +3°C° 0 mm 3 mps 725 mmHg 91%
    05:00 +3°C° 1 mm 3 mps 725 mmHg 92%
    06:00 +3°C° 1 mm 3 mps 725 mmHg 93%
    07:00 +4°C° 0 mm 2 mps 724 mmHg 94%
    08:00 +5°C° 0.7 mm 4 mps 724 mmHg 91%
    09:00 +5°C° 0.7 mm 6 mps 724 mmHg 89%
    10:00 +6°C° 0.7 mm 7 mps 724 mmHg 86%
    11:00 +7°C° 0.1 mm 8 mps 724 mmHg 82%
    12:00 +9°C° 0.1 mm 8 mps 725 mmHg 78%
    13:00 +10°C° 0.1 mm 8 mps 725 mmHg 74%
    14:00 +10°C° 0.1 mm 7 mps 726 mmHg 76%
    15:00 +9°C° 0.1 mm 6 mps 726 mmHg 79%
    16:00 +9°C° 0.1 mm 5 mps 727 mmHg 82%
    17:00 +8°C° 0.2 mm 5 mps 727 mmHg 84%
    18:00 +7°C° 0.2 mm 4 mps 728 mmHg 87%
    19:00 +8°C° 0.2 mm 3 mps 728 mmHg 90%
    20:00 +8°C° 0.1 mm 3 mps 729 mmHg 90%
    21:00 +7°C° 0.1 mm 2 mps 729 mmHg 89%
    22:00 +7°C° 0.1 mm 2 mps 730 mmHg 88%
    23:00 +7°C° 0.1 mm 2 mps 730 mmHg 89%

    Mañana, 16 Diciembre, Lunes

    Tiempo Temperatura Precipitaciones Viento Presión Humedad
    00:00 +8°C° 0.1 mm 1 mps 730 mmHg 89%
    01:00 +8°C° 0.1 mm 1 mps 730 mmHg 90%
    02:00 +8°C° 0.1 mm 1 mps 730 mmHg 90%
    03:00 +8°C° 0.1 mm 1 mps 731 mmHg 91%
    04:00 +8°C° 0.1 mm 1 mps 731 mmHg 91%
    05:00 +7°C° 0 mm 1 mps 731 mmHg 91%
    06:00 +7°C° 0 mm 1 mps 730 mmHg 91%
    07:00 +7°C° 0 mm 1 mps 730 mmHg 92%
    08:00 +7°C° 0 mm 1 mps 730 mmHg 89%
    09:00 +8°C° 0 mm 1 mps 730 mmHg 87%
    10:00 +9°C° 0 mm 1 mps 731 mmHg 85%
    11:00 +9°C° 0 mm 1 mps 730 mmHg 81%
    12:00 +10°C° 0 mm 1 mps 730 mmHg 77%
    13:00 +11°C° 0 mm 1 mps 729 mmHg 74%
    14:00 +10°C° 0 mm 1 mps 729 mmHg 77%
    15:00 +9°C° 0 mm 1 mps 729 mmHg 80%
    16:00 +8°C° 0 mm 1 mps 729 mmHg 84%
    17:00 +8°C° 0 mm 1 mps 729 mmHg 86%
    18:00 +7°C° 0 mm 1 mps 729 mmHg 88%
    19:00 +6°C° 0 mm 1 mps 729 mmHg 91%
    20:00 +6°C° 0 mm 1 mps 729 mmHg 91%
    21:00 +6°C° 0 mm 1 mps 728 mmHg 91%
    22:00 +5°C° 0 mm 1 mps 728 mmHg 92%
    23:00 +5°C° 0 mm 1 mps 728 mmHg 92%

    Pasado mañana, 17 Diciembre, Martes

    Tiempo Temperatura Precipitaciones Viento Presión Humedad
    00:00 +5°C° 0 mm 1 mps 728 mmHg 92%
    01:00 +5°C° 0 mm 1 mps 728 mmHg 92%
    02:00 +5°C° 0 mm 1 mps 728 mmHg 93%
    03:00 +5°C° 0 mm 1 mps 727 mmHg 93%
    04:00 +5°C° 0 mm 1 mps 727 mmHg 94%
    05:00 +3°C° 0 mm 2 mps 727 mmHg 95%
    06:00 +3°C° 0 mm 2 mps 727 mmHg 96%
    07:00 +3°C° 0 mm 2 mps 727 mmHg 97%
    08:00 +5°C° 0 mm 1 mps 727 mmHg 96%
    09:00 +5°C° 0 mm 1 mps 728 mmHg 95%
    10:00 +6°C° 0 mm 1 mps 728 mmHg 95%
    11:00 +6°C° 0 mm 1 mps 728 mmHg 92%
    12:00 +7°C° 0 mm 1 mps 728 mmHg 88%
    13:00 +7°C° 0 mm 1 mps 727 mmHg 85%
    14:00 +6°C° 0 mm 0 mps 727 mmHg 87%
    15:00 +5°C° 0 mm 0 mps 728 mmHg 89%
    16:00 +5°C° 0 mm 0 mps 728 mmHg 91%
    17:00 +5°C° 0 mm 0 mps 728 mmHg 91%
    18:00 +5°C° 0 mm 0 mps 728 mmHg 91%
    19:00 +4°C° 0 mm 0 mps 728 mmHg 91%
    20:00 +4°C° 0 mm 0 mps 728 mmHg 89%
    21:00 +4°C° 0 mm 0 mps 729 mmHg 88%
    22:00 +6°C° 0 mm 1 mps 729 mmHg 87%
    23:00 +4°C° 0 mm 0 mps 729 mmHg 87%

    18 Diciembre, Miércoles

    Tiempo Temperatura Precipitaciones Viento Presión Humedad
    00:00 +4°C° 0 mm 0 mps 729 mmHg 86%
    01:00 +4°C° 0 mm 0 mps 729 mmHg 85%
    02:00 +4°C° 0 mm 0 mps 729 mmHg 85%
    03:00 +4°C° 0 mm 0 mps 729 mmHg 84%
    04:00 +4°C° 0 mm 0 mps 729 mmHg 84%
    05:00 +4°C° 0 mm 0 mps 729 mmHg 84%
    06:00 +4°C° 0 mm 0 mps 729 mmHg 84%
    07:00 +4°C° 0 mm 0 mps 730 mmHg 84%
    08:00 +5°C° 0 mm 0 mps 730 mmHg 82%
    09:00 +5°C° 0 mm 0 mps 730 mmHg 81%
    10:00 +7°C° 0 mm 1 mps 731 mmHg 79%
    11:00 +7°C° 0 mm 0 mps 731 mmHg 77%
    12:00 +7°C° 0 mm 0 mps 730 mmHg 76%
    13:00 +8°C° 0 mm 0 mps 730 mmHg 74%
    14:00 +7°C° 0 mm 0 mps 730 mmHg 77%
    15:00 +7°C° 0 mm 0 mps 730 mmHg 80%
    16:00 +6°C° 0 mm 0 mps 730 mmHg 83%
    17:00 +7°C° 0 mm 1 mps 730 mmHg 85%
    18:00 +6°C° 0 mm 1 mps 730 mmHg 86%
    19:00 +6°C° 0 mm 1 mps 729 mmHg 87%
    20:00 +6°C° 0 mm 1 mps 729 mmHg 89%
    21:00 +5°C° 0 mm 1 mps 729 mmHg 90%
    22:00 +5°C° 0 mm 1 mps 729 mmHg 91%
    23:00 +5°C° 0 mm 1 mps 729 mmHg 92%

    19 Diciembre, Jueves

    Tiempo Temperatura Precipitaciones Viento Presión Humedad
    00:00 +5°C° 0 mm 1 mps 728 mmHg 93%
    01:00 +4°C° 0 mm 1 mps 728 mmHg 94%
    02:00 +4°C° 0 mm 1 mps 728 mmHg 95%
    03:00 +3°C° 0 mm 0 mps 728 mmHg 95%
    04:00 +3°C° 0 mm 0 mps 728 mmHg 96%
    05:00 +3°C° 0 mm 0 mps 727 mmHg 96%
    06:00 +3°C° 0 mm 0 mps 727 mmHg 96%
    07:00 +3°C° 0 mm 0 mps 727 mmHg 96%
    08:00 +3°C° 0 mm 0 mps 727 mmHg 95%
    09:00 +4°C° 0 mm 0 mps 727 mmHg 94%
    10:00 +4°C° 0 mm 0 mps 728 mmHg 93%
    11:00 +5°C° 0 mm 0 mps 727 mmHg 90%
    12:00 +6°C° 0 mm 0 mps 727 mmHg 88%
    13:00 +6°C° 0 mm 0 mps 727 mmHg 85%
    14:00 +6°C° 0 mm 0 mps 726 mmHg 88%
    15:00 +5°C° 0 mm 0 mps 726 mmHg 91%
    16:00 +4°C° 0 mm 0 mps 726 mmHg 93%
    17:00 +4°C° 0 mm 0 mps 725 mmHg 94%
    18:00 +4°C° 0 mm 0 mps 725 mmHg 94%
    19:00 +4°C° 0 mm 1 mps 725 mmHg 95%
    20:00 +3°C° 0 mm 0 mps 725 mmHg 95%
    21:00 +3°C° 0 mm 0 mps 724 mmHg 96%
    22:00 +3°C° 0 mm 0 mps 724 mmHg 96%
    23:00 +3°C° 0 mm 0 mps 724 mmHg 96%

    20 Diciembre, Viernes

    Tiempo Temperatura Precipitaciones Viento Presión Humedad
    00:00 +3°C° 0 mm 0 mps 723 mmHg 96%
    01:00 +3°C° 0 mm 0 mps 723 mmHg 96%
    02:00 +2°C° 0 mm 0 mps 722 mmHg 96%
    03:00 +2°C° 0 mm 0 mps 722 mmHg 97%
    04:00 +2°C° 0 mm 0 mps 722 mmHg 97%
    05:00 +3°C° 0 mm 1 mps 721 mmHg 97%
    06:00 +4°C° 0 mm 1 mps 721 mmHg 97%
    07:00 +4°C° 0 mm 1 mps 721 mmHg 98%
    08:00 +4°C° 0 mm 1 mps 721 mmHg 97%
    09:00 +5°C° 0 mm 1 mps 720 mmHg 96%
    10:00 +6°C° 0 mm 1 mps 720 mmHg 96%
    11:00 +5°C° 0 mm 2 mps 719 mmHg 93%
    12:00 +6°C° 0 mm 2 mps 718 mmHg 90%
    13:00 +7°C° 0 mm 2 mps 717 mmHg 87%
    14:00 +7°C° 0 mm 3 mps 716 mmHg 89%
    15:00 +5°C° 0 mm 3 mps 715 mmHg 90%
    16:00 +5°C° 0 mm 3 mps 715 mmHg 91%
    17:00 +5°C° 0 mm 4 mps 714 mmHg 92%
    18:00 +5°C° 0 mm 4 mps 713 mmHg 92%
    19:00 +5°C° 0 mm 4 mps 712 mmHg 93%
    20:00 +4°C° 0 mm 3 mps 712 mmHg 93%
    21:00 +5°C° 0 mm 2 mps 711 mmHg 94%
    22:00 +6°C° 0 mm 1 mps 711 mmHg 95%
    23:00 +6°C° 0 mm 1 mps 711 mmHg 95%
    Mostrar más